ARIANE 5 R/B (28499 NORAD) Tracking and Keplerian Element Data

This shows tracking and keplerian element data for the satellite.

Feedback or suggestion? Click here.




ElementValue
Catalog28499
NameARIANE 5 R/B
Epoch Orbit73247
Epoch Day198.87694071
Epoch Year2018
RAAN288.6652
Inclination98.0596
Eccentricity0.0092704
Argument of Perigee18.3493
Mean Anonmoly95.3236
Mean Motion14.79910755
Decay Rate3E-08
L11 28499U 04049H 18198.87694071 .00000003 00000-0 77960-5 0 9995
L22 28499 98.0596 288.6652 0092704 18.3493 95.3236 14.79910755732477

Live tracking and technical data element details for ARIANE 5 R/B (NORAD 28499). ARIANE 5 R/B can be tracked NOW for your location showing map with azimuth and elevation plus other details from your city location.

Track the satellite on the map from your city or location and see movement details for azimuth, elevation, latitude, longitude, range, height, and movement on the map or in text.







IsCatalogInMostPopularTable: catalog: 28499, numindb: 25
Update: records affected: 1



GetName: 28499 ARIANE 5 R/B

Hit Count: updated at: Fri, 20 Jul 2018 20:23:19 GMT